[[{"header":{"parameterUnit":"m.s-1","parameterCategory":1,"la1":30.2991,"la2":30.254,"lo1":-89.0895,"lo2":-89.0444,"dy":0.0017,"dx":0.0017,"nx":28,"ny":28,"refTime":"2023-08-26T21:00:00:Z","depth":0,"parameterNumber":2,"parameterNumberName":"U-component_of_WINDS"},"data":[0,0,0,0,0,0,0,0,0,0,0,0,0,0,0,0,0,0,0,0,0,0,0,0,0,0,0,0,0,0,0,0,0,0,0,0,0,0,0,0,0,0,0,0,0,0,0,0,0,0,0,0,0,0,0,0,0,0,0.5348,0.5347,0,0.5259,0.5258,0.5257,0.5249,0.525,0.5251,0.5252,0.5156,0.5152,0.5149,0,0,0,0,0,0,0,0,0,0,0,0,0,0.5505,0.5503,0.5348,0.5347,0.5346,0.5259,0.5258,0.5257,0.5249,0.525,0.5251,0.5252,0.5157,0.5153,0.5148,0,0,0,0,0,0,0,0,0,0,0,0,0,0.5429,0.5502,0.5349,0.5332,0.5329,0.526,0.5258,0.5257,0.5248,0.525,0.5251,0.5253,0.5158,0.5153,0.5148,0.5088,0,0,0.5132,0.513,0,0,0,0,0,0,0,0,0.5433,0.5423,0.5335,0.5333,0.533,0.5267,0.5278,0.52,0.5248,0.5279,0.5252,0.5253,0.5191,0.5183,0.5163,0.5083,0.5079,0.5132,0.5129,0.5126,0.5125,0,0,0,0,0,0,0,0.5438,0.5427,0.5313,0.5334,0.5331,0.5327,0.5317,0.5263,0.5228,0.5276,0.5276,0.5265,0.519,0.5168,0.5161,0.5077,0.5132,0.5127,0.5124,0.5122,0.4941,0.4939,0,0,0,0,0,0,0.5448,0.5431,0.5316,0.531,0.5386,0.5323,0.5312,0.5286,0.5229,0.5221,0.5264,0.5265,0.5176,0.5167,0.5158,0.5082,0.5126,0.5122,0.5119,0.4943,0.494,0.4939,0,0,0,0,0,0,0.5451,0.5438,0.5319,0.5371,0.5355,0.5319,0.5288,0.5283,0.5262,0.522,0.5213,0.5249,0.5177,0.5165,0.5105,0.5078,0.5119,0.5114,0.4945,0.4942,0.494,0.4931,0,0,0,0,0,0,0.5456,0.5439,0.5417,0.537,0.5353,0.527,0.5287,0.528,0.5253,0.5254,0.5203,0.5196,0.5177,0.5113,0.51,0.5072,0.511,0.4947,0.4943,0.494,0.4933,0.4928,0.4924,0,0,0,0,0,0.5461,0.5417,0.5416,0.5402,0.5325,0.5269,0.5258,0.5239,0.5251,0.5228,0.52,0.5198,0.5084,0.5107,0.5092,0.5062,0.4948,0.4944,0.4941,0.4935,0.4929,0.4924,0,0,0,0,0,0,0.546,0.5411,0.5409,0.5349,0.5313,0.5267,0.5237,0.5233,0.5192,0.5194,0.5169,0.5158,0.5099,0.5074,0.5101,0.5,0.5017,0.501,0.5018,0.5012,0.5007,0.5014,0.5106,0,0,0,0,0,0.5454,0.5414,0.5372,0.5323,0.5305,0.5274,0.5249,0.5237,0.5198,0.5183,0.5151,0.5112,0.5067,0.5038,0.4995,0.493,0.4917,0.4902,0.4897,0.4894,0.4887,0.4849,0.4841,0.4926,0.4926,0.4926,0,0,0.5438,0.5406,0.5382,0.5322,0.5293,0.525,0.5262,0.5216,0.5184,0.5175,0.5117,0.5092,0.5047,0.4984,0.4955,0.4962,0.4861,0.4889,0.4886,0.4882,0.4845,0.4837,0.483,0.4923,0.4924,0.4924,0,0,0.5389,0.5361,0.5317,0.5287,0.5244,0.5223,0.5213,0.5167,0.5151,0.5092,0.5084,0.5044,0.4968,0.4936,0.4909,0.4846,0.4842,0.4832,0.4808,0.4771,0.4764,0.4758,0.4734,0.4726,0.4827,0.4827,0.4827,0,0.5375,0.5312,0.5294,0.5249,0.5221,0.5213,0.5166,0.5138,0.5082,0.5062,0.5072,0.4975,0.4944,0.4872,0.4857,0.4836,0.4821,0.4838,0.4767,0.4761,0.4755,0.4732,0.4723,0.4826,0.4826,0.4826,0.4826,0,0.5296,0.5253,0.5222,0.5169,0.5138,0.5092,0.5065,0.5036,0.5026,0.5004,0.4943,0.4906,0.4854,0.4836,0.4825,0.4762,0.4768,0.4772,0.4789,0.4746,0.4724,0.4715,0.4825,0.4825,0.4825,0.4825,0,0,0.5243,0.5181,0.517,0.5145,0.5096,0.5061,0.5014,0.4964,0.4939,0.49,0.4858,0.4793,0.4797,0.4767,0.4753,0.4721,0.4671,0.4729,0.4727,0.4718,0.4597,0.4593,0.4583,0.4668,0.4666,0.4665,0.46,0,0.5187,0.5106,0.5087,0.5016,0.4974,0.4965,0.4924,0.4888,0.4866,0.4825,0.48,0.4754,0.4763,0.4745,0.4713,0.4684,0.4646,0.4689,0.4627,0.4625,0.4638,0.4572,0.4568,0.4508,0.4591,0.459,0.4589,0,0.5111,0.5072,0.4996,0.4952,0.4933,0.4897,0.4849,0.4812,0.477,0.4756,0.4722,0.4711,0.4659,0.4679,0.4606,0.4636,0.4609,0.4591,0.4588,0.4581,0.4604,0.4561,0.4489,0.448,0.4575,0.4576,0.4577,0,0.5078,0.5006,0.4952,0.4931,0.4878,0.4852,0.4828,0.4788,0.4759,0.4717,0.4697,0.4649,0.4622,0.4584,0.4559,0.4576,0.4488,0.4506,0.4473,0.4474,0.4454,0.4456,0.4376,0.4439,0.4439,0.4439,0.444,0,0.5017,0.4971,0.4936,0.4903,0.485,0.4829,0.4776,0.4752,0.4716,0.4676,0.4665,0.4627,0.4597,0.4554,0.4534,0.4476,0.4464,0.445,0.4445,0.445,0.4452,0.4432,0.4435,0.4437,0.4438,0.4438,0.4438,0,0.4971,0.4947,0.4886,0.4841,0.4828,0.4791,0.4751,0.4717,0.4695,0.4644,0.463,0.4594,0.4544,0.4515,0.4451,0.4438,0.4372,0.437,0.4387,0.4384,0.4352,0.4355,0.4256,0.4241,0.4316,0.4315,0.4315,0,0.4933,0.4898,0.4849,0.4822,0.4798,0.4755,0.4725,0.4702,0.4672,0.4621,0.4592,0.4541,0.4499,0.4417,0.4384,0.4334,0.433,0.4298,0.4322,0.4328,0.4327,0.433,0.4325,0.4294,0.4293,0.4293,0.4292,0,0.4867,0.4857,0.4816,0.4771,0.4736,0.4699,0.4661,0.4639,0.4609,0.4575,0.4524,0.4491,0.4426,0.4374,0.4322,0.4295,0.4287,0.4285,0.4275,0.4279,0.429,0.4282,0.4374,0.4287,0.4288,0.4288,0.4288,0.4289,0.4823,0.4791,0.4751,0.4706,0.4676,0.4641,0.4606,0.458,0.4537,0.4483,0.4472,0.4417,0.4374,0.4303,0.4275,0.423,0.4236,0.4221,0.4217,0.4213,0.4211,0.4298,0.422,0.422,0.4221,0.4221,0.4221,0,0.4756,0.473,0.4689,0.4637,0.4601,0.4599,0.4558,0.4526,0.4479,0.4441,0.44,0.4339,0.4289,0.4252,0.42,0.4171,0.4167,0.4158,0.416,0.4153,0.421,0.4224,0.4163,0.4163,0.4163,0.4163,0.4163,0.4163,0.4717,0.4661,0.4646,0.4575,0.4548,0.4496,0.4472,0.4439,0.4409,0.4343,0.4301,0.4278,0.4239,0.4185,0.4138,0.4128,0.4108,0.41,0.409,0.4143,0.4149,0.4155,0.4168,0.4097,0.4097,0.4037,0.4036,0.4036]},{"header":{"parameterUnit":"m.s-1","parameterCategory":1,"la1":30.2991,"la2":30.254,"lo1":-89.0895,"lo2":-89.0444,"dy":0.0017,"dx":0.0017,"nx":28,"ny":28,"refTime":"2023-08-26T21:00:00:Z","depth":0,"parameterNumber":3,"parameterNumberName":"V-component_of_WINDS"},"data":[0,0,0,0,0,0,0,0,0,0,0,0,0,0,0,0,0,0,0,0,0,0,0,0,0,0,0,0,0,0,0,0,0,0,0,0,0,0,0,0,0,0,0,0,0,0,0,0,0,0,0,0,0,0,0,0,0,0,1.4133,1.4134,0,1.4203,1.4204,1.4205,1.4186,1.4185,1.4184,1.4182,1.4256,1.4259,1.4262,0,0,0,0,0,0,0,0,0,0,0,0,0,1.3984,1.3987,1.4133,1.4134,1.4134,1.4203,1.4204,1.4205,1.4187,1.4185,1.4183,1.4182,1.4255,1.4259,1.4263,0,0,0,0,0,0,0,0,0,0,0,0,0,1.4051,1.3988,1.4133,1.4134,1.4134,1.4203,1.4204,1.4205,1.4187,1.4185,1.4183,1.4181,1.4254,1.4258,1.4263,1.4335,0,0,1.4278,1.428,0,0,0,0,0,0,0,0,1.4047,1.4056,1.4133,1.4134,1.4135,1.4184,1.4178,1.4249,1.4187,1.4167,1.4182,1.418,1.4234,1.424,1.4258,1.4339,1.4342,1.4278,1.4281,1.4284,1.4285,0,0,0,0,0,0,0,1.4042,1.4053,1.4161,1.4134,1.4135,1.4131,1.4138,1.4192,1.4211,1.4169,1.4168,1.4176,1.4234,1.4253,1.426,1.4343,1.4278,1.4283,1.4286,1.4288,1.4486,1.4488,0,0,0,0,0,0,1.4037,1.4049,1.4158,1.4163,1.4085,1.4135,1.4143,1.417,1.4211,1.4215,1.4178,1.4175,1.4246,1.4254,1.4262,1.4349,1.4284,1.4288,1.4291,1.4484,1.4487,1.4489,0,0,0,0,0,0,1.4034,1.4047,1.4156,1.4106,1.4119,1.414,1.417,1.4173,1.4192,1.4217,1.4221,1.4194,1.4245,1.4255,1.4317,1.4351,1.429,1.4295,1.4481,1.4485,1.4488,1.4524,0,0,0,0,0,0,1.4029,1.4046,1.4073,1.4107,1.4122,1.4209,1.4172,1.4176,1.42,1.4197,1.4234,1.4238,1.4244,1.431,1.4322,1.4357,1.4299,1.4478,1.4483,1.4487,1.452,1.4528,1.4536,0,0,0,0,0,1.4024,1.4081,1.4075,1.4088,1.4157,1.4211,1.422,1.4226,1.4203,1.4231,1.4247,1.4236,1.4345,1.4316,1.433,1.4367,1.4476,1.4481,1.4486,1.4516,1.4527,1.4535,0,0,0,0,0,0,1.4052,1.4086,1.4079,1.4148,1.4177,1.4208,1.4244,1.4236,1.4273,1.4269,1.4274,1.4282,1.4346,1.4362,1.4329,1.4439,1.4408,1.4416,1.4426,1.4436,1.4443,1.4438,1.4303,0,0,0,0,0,1.4066,1.4107,1.4134,1.4193,1.4207,1.4223,1.4247,1.4248,1.4279,1.4291,1.4312,1.4342,1.4383,1.441,1.4449,1.4522,1.453,1.4554,1.4562,1.4568,1.4575,1.4615,1.4626,1.4506,1.4506,1.4506,0,0,1.4096,1.4119,1.4145,1.4199,1.4221,1.4264,1.4233,1.428,1.4312,1.4298,1.4358,1.4374,1.4408,1.4476,1.4506,1.4492,1.461,1.4575,1.458,1.4584,1.4622,1.4633,1.4643,1.451,1.4509,1.4509,0,0,1.4173,1.4194,1.4245,1.4268,1.4302,1.4311,1.4324,1.4356,1.4366,1.4425,1.4416,1.4454,1.4525,1.4549,1.4571,1.4655,1.4647,1.4668,1.4709,1.4748,1.4757,1.4766,1.4796,1.4807,1.4675,1.4675,1.4675,0,1.4206,1.4269,1.4272,1.4319,1.4343,1.4332,1.4384,1.4406,1.4451,1.4468,1.4451,1.4539,1.4561,1.4634,1.4654,1.4672,1.4686,1.4664,1.4755,1.4764,1.4772,1.4801,1.4812,1.4677,1.4677,1.4677,1.4677,0,1.4308,1.4352,1.4389,1.4432,1.446,1.451,1.452,1.4548,1.4547,1.4559,1.462,1.4646,1.469,1.4707,1.4707,1.478,1.477,1.4754,1.4723,1.4786,1.4813,1.4824,1.4681,1.468,1.4679,1.4679,0,0,1.4406,1.4449,1.4462,1.4481,1.4517,1.4552,1.46,1.4643,1.4667,1.4698,1.4739,1.4799,1.4784,1.4809,1.4811,1.4844,1.491,1.4824,1.4825,1.484,1.4992,1.5005,1.5017,1.4904,1.4906,1.4907,1.499,0,1.4486,1.457,1.4574,1.4651,1.4692,1.4681,1.4723,1.475,1.4762,1.4799,1.4812,1.4854,1.4831,1.4846,1.4879,1.4895,1.494,1.4889,1.4943,1.4945,1.4935,1.5032,1.5045,1.5121,1.5,1.5002,1.5003,0,1.4591,1.4624,1.4705,1.4734,1.4751,1.4789,1.4828,1.4863,1.4893,1.4899,1.4926,1.4923,1.4973,1.494,1.5009,1.4974,1.4996,1.5007,1.501,1.5016,1.4978,1.5041,1.5146,1.5157,1.502,1.5019,1.5018,0,1.4654,1.4719,1.4776,1.4793,1.4828,1.4855,1.4871,1.4899,1.4924,1.4958,1.4974,1.5014,1.5036,1.5067,1.5075,1.505,1.5144,1.5111,1.5151,1.5151,1.5173,1.5171,1.5283,1.5186,1.5185,1.5185,1.5185,0,1.4743,1.4793,1.4805,1.484,1.4896,1.4899,1.4955,1.4969,1.4994,1.5032,1.5025,1.5061,1.5069,1.5106,1.5113,1.5169,1.5179,1.5186,1.5188,1.5187,1.5187,1.5203,1.5198,1.5188,1.5188,1.5187,1.5186,0,1.4824,1.4834,1.4895,1.4923,1.4931,1.4971,1.4995,1.5029,1.5039,1.5088,1.5099,1.5116,1.516,1.5171,1.5223,1.5228,1.5295,1.529,1.5284,1.5284,1.5324,1.532,1.5451,1.5468,1.5359,1.536,1.5361,0,1.4881,1.4919,1.495,1.4975,1.4992,1.5032,1.5056,1.5061,1.5088,1.5124,1.5154,1.5197,1.5231,1.5302,1.5319,1.536,1.5357,1.54,1.5363,1.5361,1.5358,1.5356,1.536,1.5407,1.5408,1.5409,1.541,0,1.4981,1.4983,1.5019,1.5056,1.5086,1.5116,1.5144,1.5165,1.5174,1.5204,1.5248,1.5275,1.5328,1.5371,1.5411,1.5428,1.5421,1.5421,1.5433,1.5433,1.5428,1.5432,1.5304,1.5418,1.5418,1.5417,1.5416,1.5416,1.5052,1.5085,1.5112,1.5152,1.5173,1.52,1.5233,1.5247,1.5283,1.5326,1.5327,1.5375,1.5404,1.5457,1.5476,1.5515,1.5502,1.5518,1.5523,1.5527,1.5531,1.5421,1.5522,1.5522,1.5522,1.5521,1.5521,0,1.5152,1.5168,1.5204,1.5244,1.5275,1.5264,1.5295,1.5322,1.5364,1.5391,1.5425,1.5476,1.5517,1.5537,1.5578,1.5605,1.5603,1.5616,1.5614,1.5618,1.554,1.5526,1.5617,1.5617,1.5617,1.5617,1.5617,1.5617,1.5207,1.5263,1.5268,1.5334,1.535,1.5397,1.5415,1.544,1.5461,1.5518,1.5552,1.5564,1.5588,1.5631,1.5668,1.5673,1.5689,1.5704,1.5707,1.5634,1.5624,1.5615,1.5602,1.5707,1.5707,1.5783,1.5783,1.5784]}]]